N14TK EDFM-LDRI

Flight info

Callsign N14TK
Flight time N/A
Altitude 11000
Route RINEX3W RINEX Z818 GEBNO/N0379F230 Z54 NOMBO/N0412F350 Y161 MANAL M736 TULSI N871 BADVI Y107 RTT DCT VEKEN DCT URAVA DCT GIRDA
Aircraft HDJT/L-SABDGRWY/H

Departure

Time 2026-04-18 15:00
Airport Mannheim-City Airport (EDFM)

Arrival

Time N/A
Airport Rijeka Airport (LDRI)
Time Latitude Longitude Altitude Speed Heading
2026-04-18 14:54 49.47563 8.52057 316 ft 0 kts 182°
2026-04-18 14:58 49.47555 8.52057 316 ft 5 kts 171°
2026-04-18 14:58 49.47538 8.52142 316 ft 13 kts 92°
2026-04-18 14:58 49.47487 8.52168 316 ft 11 kts 181°
2026-04-18 14:58 49.47392 8.52159 316 ft 16 kts 184°
2026-04-18 14:59 49.47282 8.52150 316 ft 16 kts 184°
2026-04-18 14:59 49.47248 8.52105 316 ft 1 kts 274°
2026-04-18 14:59 49.47253 8.51959 316 ft 52 kts 273°
2026-04-18 14:59 49.47292 8.50919 326 ft 135 kts 274°
2026-04-18 15:00 49.47322 8.49503 1021 ft 132 kts 265°
2026-04-18 15:00 49.47146 8.48026 1612 ft 149 kts 261°
2026-04-18 15:00 49.46924 8.46399 2293 ft 160 kts 258°
2026-04-18 15:00 49.46644 8.44749 3168 ft 159 kts 254°
2026-04-18 15:01 49.46295 8.43065 3845 ft 173 kts 253°
2026-04-18 15:01 49.45902 8.41244 4542 ft 185 kts 253°
2026-04-18 15:01 49.45347 8.39393 5243 ft 197 kts 238°
2026-04-18 15:01 49.44396 8.37787 5984 ft 211 kts 219°
2026-04-18 15:02 49.43125 8.36637 6776 ft 218 kts 208°
2026-04-18 15:02 49.41684 8.35787 7615 ft 225 kts 198°
2026-04-18 15:02 49.40104 8.35381 8402 ft 235 kts 185°
2026-04-18 15:02 49.38462 8.35584 9335 ft 236 kts 173°
2026-04-18 15:03 49.36861 8.36017 10425 ft 231 kts 171°
2026-04-18 15:03 49.35310 8.36639 11375 ft 230 kts 161°
2026-04-18 15:03 49.33907 8.37799 12295 ft 233 kts 148°
2026-04-18 15:03 49.32638 8.39410 13049 ft 244 kts 141°
2026-04-18 15:04 49.31459 8.41438 13528 ft 268 kts 123°
2026-04-18 15:04 49.30714 8.44171 14052 ft 285 kts 101°
2026-04-18 15:04 49.30838 8.47130 15069 ft 275 kts 71°
2026-04-18 15:04 49.31382 8.49925 15980 ft 275 kts 78°
2026-04-18 15:05 49.31671 8.52846 16758 ft 279 kts 83°
2026-04-18 15:05 49.31923 8.55775 17557 ft 283 kts 80°
2026-04-18 15:05 49.32297 8.58759 18376 ft 286 kts 77°
2026-04-18 15:05 49.32473 8.61815 19071 ft 290 kts 95°
2026-04-18 15:06 49.32089 8.64841 19792 ft 291 kts 111°
2026-04-18 15:06 49.31200 8.67617 20468 ft 291 kts 126°
2026-04-18 15:06 49.30081 8.70226 21139 ft 294 kts 127°
2026-04-18 15:06 49.28967 8.72878 21895 ft 297 kts 126°
2026-04-18 15:07 49.27843 8.75559 22659 ft 301 kts 126°
2026-04-18 15:07 49.26693 8.78258 23424 ft 304 kts 127°
2026-04-18 15:07 49.25528 8.80983 24061 ft 311 kts 127°
2026-04-18 15:07 49.24286 8.83861 24120 ft 337 kts 127°
2026-04-18 15:08 49.22957 8.86936 24125 ft 361 kts 126°
2026-04-18 15:08 49.21546 8.90252 24119 ft 382 kts 125°
2026-04-18 15:08 49.20286 8.93964 24128 ft 402 kts 112°
2026-04-18 15:08 49.19538 8.98161 24126 ft 418 kts 99°
2026-04-18 15:09 49.19322 9.02624 24121 ft 412 kts 92°
2026-04-18 15:09 49.19235 9.06867 24121 ft 397 kts 92°
2026-04-18 15:09 49.19131 9.11161 24121 ft 409 kts 92°
2026-04-18 15:09 49.19009 9.15550 24122 ft 415 kts 92°
2026-04-18 15:10 49.18887 9.19957 24124 ft 414 kts 92°
2026-04-18 15:10 49.18771 9.24351 24127 ft 414 kts 92°
2026-04-18 15:10 49.18651 9.28751 24127 ft 414 kts 93°
2026-04-18 15:10 49.18565 9.33117 23807 ft 409 kts 86°
2026-04-18 15:11 49.19178 9.37258 23418 ft 388 kts 65°
2026-04-18 15:11 49.20584 9.40766 22710 ft 393 kts 45°
2026-04-18 15:11 49.22663 9.43435 21931 ft 387 kts 29°
2026-04-18 15:11 49.25025 9.45256 21164 ft 374 kts 13°
2026-04-18 15:12 49.27551 9.45831 20235 ft 362 kts 353°
2026-04-18 15:12 49.29816 9.45122 19307 ft 305 kts 332°
2026-04-18 15:12 49.31534 9.43540 18374 ft 288 kts 319°
2026-04-18 15:12 49.33026 9.41445 17307 ft 293 kts 308°
2026-04-18 15:13 49.34204 9.38864 16274 ft 297 kts 296°
2026-04-18 15:13 49.35019 9.35942 15284 ft 299 kts 289°
2026-04-18 15:13 49.35741 9.32931 14319 ft 301 kts 290°
2026-04-18 15:13 49.36556 9.29964 13314 ft 302 kts 293°
2026-04-18 15:14 49.37417 9.27021 12279 ft 303 kts 292°
2026-04-18 15:14 49.38238 9.24081 11298 ft 300 kts 291°
2026-04-18 15:14 49.38991 9.21304 10330 ft 269 kts 291°
2026-04-18 15:15 49.40477 9.15903 8585 ft 275 kts 292°
2026-04-18 15:15 49.41214 9.13247 7884 ft 272 kts 291°
2026-04-18 15:15 49.41946 9.10594 7365 ft 264 kts 292°
2026-04-18 15:15 49.42639 9.08063 7044 ft 250 kts 291°
2026-04-18 15:16 49.43303 9.05648 6715 ft 240 kts 292°
2026-04-18 15:16 49.43940 9.03337 6407 ft 231 kts 292°
2026-04-18 15:16 49.44557 9.01096 6096 ft 224 kts 292°
2026-04-18 15:16 49.45144 8.98902 5789 ft 219 kts 289°
2026-04-18 15:17 49.45417 8.96653 5517 ft 215 kts 276°
2026-04-18 15:17 49.45603 8.94366 5232 ft 215 kts 278°
2026-04-18 15:17 49.45810 8.92094 4994 ft 211 kts 276°
2026-04-18 15:17 49.45893 8.89913 5001 ft 198 kts 274°
2026-04-18 15:18 49.45967 8.87881 5008 ft 183 kts 274°
2026-04-18 15:18 49.46037 8.85961 4996 ft 175 kts 274°
2026-04-18 15:18 49.46103 8.84132 4995 ft 168 kts 274°
2026-04-18 15:18 49.46164 8.82374 4982 ft 162 kts 274°
2026-04-18 15:19 49.46228 8.80607 4752 ft 170 kts 274°
2026-04-18 15:19 49.46297 8.78768 4461 ft 174 kts 274°
2026-04-18 15:19 49.46367 8.76924 4172 ft 177 kts 274°
2026-04-18 15:19 49.46434 8.75029 3886 ft 177 kts 274°
2026-04-18 15:20 49.46501 8.73133 3594 ft 178 kts 274°
2026-04-18 15:20 49.46572 8.71233 3306 ft 178 kts 274°
2026-04-18 15:20 49.46641 8.69331 3014 ft 178 kts 274°
2026-04-18 15:20 49.46708 8.67427 2726 ft 177 kts 274°
2026-04-18 15:21 49.46779 8.65520 2424 ft 179 kts 274°
2026-04-18 15:21 49.46845 8.63751 2149 ft 154 kts 275°
2026-04-18 15:21 49.46904 8.62222 1926 ft 134 kts 275°
2026-04-18 15:21 49.46947 8.60862 1698 ft 122 kts 274°
2026-04-18 15:22 49.46990 8.59544 1500 ft 124 kts 275°
2026-04-18 15:22 49.47035 8.58234 1306 ft 125 kts 275°
2026-04-18 15:22 49.47076 8.56902 1100 ft 123 kts 274°
2026-04-18 15:22 49.47122 8.55578 900 ft 123 kts 274°
2026-04-18 15:23 49.47168 8.54295 710 ft 117 kts 274°
2026-04-18 15:23 49.47211 8.53052 501 ft 111 kts 273°
2026-04-18 15:23 49.47251 8.51941 318 ft 95 kts 274°
2026-04-18 15:23 49.47276 8.51445 314 ft 5 kts 250°
2026-04-18 15:24 49.47238 8.51420 314 ft 6 kts 180°
2026-04-18 15:24 49.47217 8.51472 314 ft 7 kts 95°
2026-04-18 15:24 49.47214 8.51560 314 ft 10 kts 94°
2026-04-18 15:24 49.47210 8.51674 314 ft 12 kts 92°
2026-04-18 15:25 49.47206 8.51806 314 ft 14 kts 93°
2026-04-18 15:25 49.47200 8.51974 314 ft 17 kts 93°
2026-04-18 15:25 49.47235 8.52133 312 ft 17 kts 26°
2026-04-18 15:25 49.47348 8.52156 314 ft 17 kts
2026-04-18 15:26 49.47464 8.52164 314 ft 17 kts
2026-04-18 15:26 49.47545 8.52187 314 ft 9 kts 61°
2026-04-18 15:26 49.47529 8.52230 314 ft 1 kts 99°
2026-04-18 15:26 49.47529 8.52231 314 ft 0 kts 86°